SL-4 R/B

Last updated on Nov. 13, 2019, 12:02 a.m. UTC

1 39679U 14021B   19316.50296432  .00000246  00000-0  30021-4 0  9995
2 39679  51.6185  38.7116 0171895 270.6166  87.5111 15.06203417306491

Satellite is not in orbit.